sat.trackr.live / text

‹ back to catalog

GEESAT-1 06

NORAD 52790 · 2022-058F

PAYLOAD ACTIVE UNKNOWN

§ Identity

Operator
Country
PRC
Launch date
2022-06-02
Launch site
XICLF
Launch vehicle
Mass (kg)
RCS (m²)

External: N2YO · Heavens-Above · Gunter

§ Orbital elements

Epoch: 2026-05-25T03:22:20.362080Z

Period
97.21 min
Inclination
50.0061°
Eccentricity
0.0033856
Mean motion
14.81273958 rev/d
Perigee alt
601.6 km
Apogee alt
649.0 km
Semi-major
7,003.4 km
B*
2.2903e-4
RAAN
309.2982°
Arg perigee
58.9056°
Mean anomaly
301.5197°
Rev number
21,651

§ Raw data

GEESAT-1 061 52790U 22058F   26145.14051345  .00001591  00000+0  22903-3 0  99952 52790  50.0061 309.2982 0033856  58.9056 301.5197 14.81273958216517

JSON: /api/v1/satellites/52790 · /tle

For live sub-satellite position, see the globe view (requires WebGL).

§ Visibility from observer

Set your observer location to see the next 7 days of passes ≥ 10°. The values pass through the URL so the page stays shareable.

No JS? Fill the form by hand. The geolocation button needs JavaScript.